Volver al catálogo

DELTA 1 DEB

LostSSO
NORAD 42579·DEBRIS·🇺🇸 United States

Lanzado Nov 6, 1973 desde Vandenberg Space Force Base

Loading…

Próximos Pases (próximas 24 horas)

TLE

ObsoletoSource: Space-Track

Época: Aug 14, 2026, 11:33 UTC

1 42579U 73086HT  26226.48165809  .00000000  00000-0  41170-3 0  9996
2 42579 102.5941 243.6849 0079150 255.6545 103.5711 12.26807567217744

Sigue DELTA 1 DEB en tiempo real con AllMySat

Download on the App Store